Volver al catálogo

STARLINK-11581

ActivoComunicacionesVLEO
NORAD 63144·PAYLOAD·🇺🇸 United States

Lanzado Mar 3, 2025 desde Cape Canaveral Space Force Station

Loading…

Próximos Pases (próximas 24 horas)

TLE

ActualizadoSource: CelesTrak SupGP

Época: Sep 15, 2026, 03:29 UTC

1 63144C 25043N   26258.14562500 -.00044648  00000+0 -34688-3 0  2585
2 63144  43.0007 188.7666 0001416 273.8823 253.8680 15.70853978    17

Sigue STARLINK-11581 en tiempo real con AllMySat

Download on the App Store